Regional Weather Roundup
Issued by NWS Wilmington, NC

Home | Current Version | Previous Version | Text Only | Print | Product List | Glossary On
Versions: 1 2 3 4 5 6 7 8 9 10 11 12 13 14 15 16 17 18 19 20 21 22 23 24 25 26
000
ASUS42 KILM 260113
RWRILM
RWRILM
REGIONAL HOURLY WEATHER ROUNDUP
NATIONAL WEATHER SERVICE WILMINGTON NC
900 PM EDT TUE APR 25 2017

NOTE: "FAIR" INDICATES FEW OR NO CLOUDS BELOW 12,000 FEET WITH NO
SIGNIFICANT WEATHER AND/OR OBSTRUCTIONS TO VISIBILITY.

...............WFO WILMINGTON COUNTY WARNING AREA...............

......COASTAL NC AND SC COUNTIES......

CITY           SKY/WX    TMP DP  RH WIND       PRES   REMARKS
WILMINGTON     CLOUDY    64  61  90 W8        29.71R
N MYRTLE BEACH CLOUDY    64  60  87 CALM      29.73R
MYRTLE BEACH   CLOUDY    64  59  82 W6        29.74

......INLAND NC AND SC COUNTIES.......

CITY           SKY/WX    TMP DP  RH WIND       PRES   REMARKS
LUMBERTON      CLOUDY    63  60  90 W7        29.72R
ELIZABETHTOWN  CLOUDY    63  61  93 CALM      29.72R
WHITEVILLE     MOCLDY    62  59  90 CALM      29.72R
FLORENCE       CLOUDY    64  61  90 CALM      29.74R
DARLINGTON     CLOUDY    63  60  90 W5        29.74R
KINGSTREE      CLOUDY    63  61  94 CALM      29.75R
HARTSVILLE     CLOUDY    61  59  94 CALM      29.74R
BENNETTSVILLE  CLOUDY    63  63 100 CALM      29.73R
CONWAY         MOCLDY    61  59  94 CALM      29.75R
GEORGETOWN     CLOUDY    64  61  88 CALM      29.75S
MARION         CLOUDY    63  59  88 W5        29.74R

....................REST OF NORTH CAROLINA......................

.........EASTERN NC.........

CITY           SKY/WX    TMP DP  RH WIND       PRES   REMARKS
CAPE HATTERAS  PTCLDY    67  60  78 W8        29.66R HAZE
JACKSONVILLE   CLEAR     64  62  93 SW8       29.70R
MOREHEAD CITY  PTCLDY    67  63  87 SW9       29.67R
KENANSVILLE    MOCLDY    64  59  82 W6        29.70R
NEW BERN       CLEAR     62  62 100 CALM      29.68R
ELIZABETH CITY LGT RAIN  65  64  97 S8        29.64S

.........CENTRAL NC.........

CITY           SKY/WX    TMP DP  RH WIND       PRES   REMARKS
RALEIGH DURHAM DRIZZLE   62  60  93 N6        29.71R
ROCKY MOUNT    PTCLDY    65  59  81 W9        29.68R
ROANOKE RAPIDS NOT AVBL
FAYETTEVILLE   CLOUDY    66  59  78 W7        29.71R
HOFFMAN        CLOUDY    63  61  94 W3        29.73R

.........WESTERN NC.........

CITY           SKY/WX    TMP DP  RH WIND       PRES   REMARKS
CHARLOTTE      MOCLDY    66  57  72 E5        29.75R
GREENSBORO     CLOUDY    60  58  92 N5        29.74R
HICKORY        NOT AVBL
BOONE          NOT AVBL
ASHEVILLE      NOT AVBL

.....................REST OF SOUTH CAROLINA.....................

.........EASTERN SC.........

CITY           SKY/WX    TMP DP  RH WIND       PRES   REMARKS
CHARLESTON     PTCLDY    67  61  81 NW3       29.74R
BEAUFORT MCAS  PTCLDY    69  63  81 N3        29.74R
HILTON HEAD    CLEAR     70  66  88 S3        29.75R

.........CENTRAL SC.........

CITY           SKY/WX    TMP DP  RH WIND       PRES   REMARKS
COLUMBIA       CLEAR     69  60  73 CALM      29.73R
ORANGEBURG     CLEAR     66  61  84 CALM      29.74R
SUMTER SHAW    CLEAR     62  59  88 CALM      29.72R

.........WESTERN SC.........

CITY           SKY/WX    TMP DP  RH WIND       PRES   REMARKS
GREENVILLE     NOT AVBL
ROCK HILL      CLOUDY    63  60  90 CALM      29.75R
ANDERSON       CLEAR     68  60  75 SE5       29.72R
CLEMSON        NOT AVBL
GREENWOOD      PTCLDY    63  59  87 S5        29.74R


...................COASTAL AND OFFSHORE REPORTS..................

................LOCAL PIERS AND NC RESERVE................


STATION/POSITION TIME  SKY/WX   TEMP    WIND        PRES    VSBY
                                AIR SEA DIR/SP/G
                 (UTC)          (F)     (DEG/KT/KT) (MB)    (MI)
JOHNY MRCER PIER 0042            65 71  270/  8/ 15 1005.1R
NC RESRV MASNBRO 2345            66     280/  4     1005.0
OCEAN CREST PIER NOT AVBL
SPRINGMAID  PIER 0042                               1006.1R


................COASTAL AND OFFSHORE BUOYS................


STATION/POSITION TIME  SKY/WX   TEMP    WIND        PRES    VSBY
                                AIR SEA DIR/SP/G
                 (UTC)          (F)     (DEG/KT/KT) (MB)    (MI)
DIMNDSHOAL 41025 0050            71 78  230/ 17/ 21 1004.0R
WVE H/P(F/S)=  8/10 SWL H/P/D(F/S/D)=  5/150/10

CAPE LOOKOUT     0000            68     240/ 13/ 18 1003.8R
ONSLOW BAY 41036 NOT AVBL
ONSLOW BAY 41064 0008            67     250/ 17/ 23 1004.7R
ONSLOW BAY 41159 0043               71                N/A
WVE H/P(F/S)=  7/10 SWL H/P/D(F/S/D)=  2/130/11

MASNBO INL 41110 0059               70                N/A
WVE H/P(F/S)=  4/11 SWL H/P/D(F/S/D)=  2/130/11

WILM HARBR 41108 0047               70                N/A
WVE H/P(F/S)=  5/10 SWL H/P/D(F/S/D)=  2/140/11

27SE WRITB 41037 0008            68 72  250/ 16/ 23 1004.7R
FRYING PAN 41013 0050            69 75  270/ 16/ 19 1006.1R
WVE H/P(F/S)=  6/10 SWL H/P/D(F/S/D)=  5/120/10

SUNST NRSH 41024 0008            65 69  300/  8/ 12 1005.7R
CAPRS NRSH 41029 0008            73 71  230/ 14/ 17 1006.1R
EDISTO     41004 0050            70 73  220/ 14/ 16 1007.0R
WVE H/P(F/S)=  5/ 9 SWL H/P/D(F/S/D)=  3/130/ 9



..........OFFSHORE BUOYS BEYOND 100 NM OFFSHORE...........
.....IN A TRIANGLE---HAT TO BERMUDA TO BAHAMAS TO HAT.....


STATION/POSITION TIME  SKY/WX   TEMP    WIND        PRES    VSBY
                                AIR SEA DIR/SP/G
                 (UTC)          (F)     (DEG/KT/KT) (MB)    (MI)
150E HAT   41001 0050            71 71  170/ 16/ 19 1007.3R
WVE H/P(F/S)= 10/ 9 SWL H/P/D(F/S/D)=  8/170/ 9

W BERMUDA  41048 0050            71 70  160/ 17/ 23 1012.9R
WVE H/P(F/S)= 10/ 9 SWL H/P/D(F/S/D)=  7/160/ 9

ATLANTIC S 41049 2350            72 72  100/ 12/ 14 1018.3
WVE H/P(F/S)=  5/13 SWL H/P/D(F/S/D)=  3/ 50/13

E BAHAMAS  41046 0050            76 77  140/ 14/ 17 1014.8R
WVE H/P(F/S)=  6/ 8 SWL H/P/D(F/S/D)=  5/140/ 8

NE BAHAMAS 41047 0050            75 75  200/  4/  6 1013.0R
WVE H/P(F/S)=  7/ 8 SWL H/P/D(F/S/D)=  7/150/ 8

120E CANVRL41010 0050            72 78  210/  6/ 10 1010.0R
WVE H/P(F/S)=  5/ 9 SWL H/P/D(F/S/D)=  5/110/ 9


END




USA.gov is the U.S. government's official web portal to all federal, state and local government web resources and services.